Hourly Data Report for October 01, 2017

All times are specified in Local Standard Time (LST). Add 1 hour to adjust for Daylight Saving Time where and when it is observed.

SACHS HARBOUR CLIMATE
NORTHWEST TERRITORIES

71°59'33.000" N
125°15'15.000" W
87.50 m
2503648
71467
WSY

Download Data

Hourly Data (October 2017)
Hourly Data Report for October 1, 2017
Temp Definition
°C
Dew Point Temp Definition
°C
Rel Hum Definition
%
Wind Dir Definition
10's deg

Wind Spd Definition
km/h
Visibility Definition
km
Stn Press Definition
kPa
Hmdx Definition


Wind Chill Definition


Weather Definition


TIME
00:00 -1.0 -1.2 99 27 21   100.06   -7 LegendNANA
01:00 -0.6 -2.5 87 25 29   100.05   -7 LegendNANA
02:00 -1.1 -2.4 91 26 25   100.03   -7 LegendNANA
03:00 -0.3 -2.5 85 26 26   100.03   -6 LegendNANA
04:00 -0.6 -2.0 90 25 24   100.03   -7 LegendNANA
05:00 0.3 -2.5 82 23 32   99.99     LegendNANA
06:00 0.1 -2.0 86 22 37   99.98     LegendNANA
07:00 -1.3 -1.4 100 26 27   99.96   -8 LegendNANA
08:00 -0.1 -0.8 95 24 32   99.90   -7 LegendNANA
09:00 -1.3 -1.7 97 26 29   99.88   -8 LegendNANA
10:00 -0.9 -1.0 100 25 26   99.84   -7 LegendNANA
11:00 -0.9 -2.0 92 27 23   99.83   -7 LegendNANA
12:00 -1.2 -1.2 100 26 23   99.82   -7 LegendNANA
13:00 -0.7 -0.8 100 25 30   99.80   -7 LegendNANA
14:00 -1.1 -1.2 99 29 30   99.81   -8 LegendNANA
15:00 -1.8 -2.8 93 30 37   99.88   -10 LegendNANA
16:00 -2.1 -3.1 93 29 35   99.95   -10 LegendNANA
17:00 -2.5 -3.7 92 29 40   99.96   -11 LegendNANA
18:00 -1.9 -3.4 89 29 39   99.98   -10 LegendNANA
19:00 -2.4 -2.8 97 29 44   99.99   -11 LegendNANA
20:00 -2.1 -2.4 98 30 43   100.03   -10 LegendNANA
21:00 -2.4 -3.5 92 31 43   100.11   -11 LegendNANA
22:00 -2.0 -2.7 95 30 38   100.19   -10 LegendNANA
23:00 -2.3 -3.6 91 31 39   100.26   -10 LegendNANA

Notes on Data Quality.

Legend

  • E = Estimated
  • M = Missing
  • NA = Not Available
  • ‡ = Partner data that is not subject to review by the National Climate Archives
Date modified: